Find Local Weather

World > North America > United States > Florida

Fort Pierce, Florida Regional Weather

Lat: 27.44N, Lon: 80.32W
Wx Zone: FLZ059
Warning FLW WEATHER ALERT - HAZARDOUS WEATHER OUTLOOK (More Info. Click Here) Warning
Feedback
Expires:201810151100;;215135
ASUS42 KTBW 151017
RWRFL 
FLORIDA REGIONAL WEATHER ROUNDUP
NATIONAL WEATHER SERVICE TAMPA BAY RUSKIN FL
600 AM EDT MON OCT 15 2018

NOTE: "FAIR" INDICATES FEW OR NO CLOUDS BELOW 12,000 FEET WITH NO
SIGNIFICANT WEATHER AND/OR OBSTRUCTIONS TO VISIBILITY.


FLZ041-047-054-059-064-141-147-151100-
EAST CENTRAL FLORIDA
  
CITY           SKY/WX    TMP DP  RH WIND       PRES   REMARKS
DAYTONA BEACH  FAIR      74  74 100 CALM      30.08R                  
DELAND         FAIR      72  70  94 CALM      30.08S                  
JFK SPACE CTR  FAIR      74  72  95 CALM      30.07R                  
CAPE CANAVERAL FAIR      78  74  88 S6        30.06R                  
PATRICK AFB    FAIR      81  76  85 S3        30.06R                  
MELBOURNE      FAIR      78  74  87 CALM      30.07R                  
VERO BEACH     CLOUDY    79  75  87 SE3       30.06R                  
FT PIERCE      FAIR      75  72  90 CALM      30.06R                  
STUART         FAIR      79  73  83 CALM      30.07R                  

STATION/POSITION SKY/WX   TEMP    WIND        PRES    WAVE   SWELL
                          AIR SEA DIR/SP/G            HT/PER HT/PER
                          (F)     (DEG/KT/KT) (MB)    (FT/S) (FT/S)
28.5N   80.2W              83     150/ 10/ 12 1018.6R   3/10   2/10
28.9N   78.5W              82 83  130/ 10/ 12 1019.2R
TRIDENT PIER               81 83  150/  7/  9 1019.7R
28.4N   80.5W                 83                N/A     2/ 5
27.5N   80.2W                 83                N/A     3/ 9

$$

SKY/WX - Weather  TMP - Temperature  DP - Dew Point  RH - Relative Humidity
WIND - Wind Direction/Speed PRES - Barometric Pressure